Simultaneous Nadir Overpasses (SNOs) Predictions

Prediction of SNOs between METOP-A and NOAA-19 Satellite Orbit:

Table of predicted SNOs for the next 14.0 days since TLE Epoch: 11/9/2019
Index Date (METOP-A) Time (METOP-A) Lat,Lon (METOP-A) SZA (METOP-A ) Date (NOAA-19) Time (NOAA-19) Lat,Lon (NOAA-19) SZA (NOAA-19 ) Distance(km) Time Diff (sec)
1 11/17/2019 00:36:08 80.09,-176.13 99.29 11/17/2019 00:35:02 80.11,-176.08 99.31 2.98 66
2 11/17/2019 01:26:49 -80.09, -8.77 80.70 11/17/2019 01:26:06 -80.11, -8.75 80.69 1.71 43
3 11/17/2019 02:17:29 80.11, 158.71 99.34 11/17/2019 02:17:02 80.10, 158.66 99.32 1.49 27
4 11/17/2019 03:08:10 -80.11, -33.93 80.66 11/17/2019 03:08:06 -80.09, -34.02 80.68 2.79 4
5 11/17/2019 03:58:51 80.09, 133.25 99.34 11/17/2019 03:59:02 80.08, 133.39 99.33 3.06 11
6 11/17/2019 04:49:32 -80.10, -59.38 80.65 11/17/2019 04:50:06 -80.07, -59.29 80.67 3.24 34
7 11/17/2019 05:40:13 80.08, 107.80 99.34 11/17/2019 05:41:03 80.09, 107.80 99.35 0.35 50




NCC Satellite Simultaneous Nadir Overpasses (SNOs) Prediction Service
